GFSFLT2_sfc_dewp_000.txt.gz
Dewpoint
23 25 24 22 22 24 27 27 29 35 32 30 29 30 31 32 33 34 36 36 37 38 39 39 40 41 41
25 23 22 23 24 27 26 27 27 26 29 29 29 29 30 32 34 34 35 34 35 36 37 39 39 39 40
22 23 24 27 25 25 26 25 21 25 27 28 29 30 31 31 30 31 32 33 34 34 35 35 35 36 38
22 25 26 27 24 19 17 19 19 20 25 27 28 28 28 29 29 28 28 29 30 30 31 32 32 34 35
27 26 21 17 17 18 18 20 22 22 20 20 20 21 22 26 26 27 28 29 30 32 33 33 34 34 34
22 18 16 17 18 20 24 21 19 21 20 22 22 20 20 20 26 28 29 29 30 30 32 32 33 33 34
18 17 17 20 26 24 23 23 21 21 22 21 20 19 19 18 26 27 28 29 30 31 33 32 32 33 34
19 22 26 22 20 20 23 24 23 20 19 19 19 18 18 19 26 27 28 29 29 32 32 33 33 34 35
28 26 25 25 25 23 22 20 17 16 17 17 17 18 18 19 20 27 27 27 28 29 29 30 31 31 30
16 18 20 20 24 20 22 19 19 17 16 19 19 20 19 18 20 20 21 26 27 28 29 30 30 28 30
16 17 18 18 18 20 22 22 20 19 20 23 22 20 20 20 19 20 20 22 23 24 29 30 32 33 30
17 17 17 18 20 21 21 23 24 24 25 25 22 22 20 19 19 20 21 24 26 26 26 29 32 34 36
18 17 18 19 20 20 21 22 23 23 24 24 24 24 24 22 21 21 24 24 26 26 27 27 27 28 27
17 17 17 18 18 19 20 20 20 20 23 24 26 26 23 23 24 23 25 24 27 28 30 31 32 33 32
17 16 16 17 17 19 20 20 18 18 20 23 25 26 26 25 23 25 26 27 31 32 32 32 33 34 33
17 17 17 17 18 19 19 19 18 19 21 23 23 23 23 25 28 25 28 28 31 32 32 31 30 33 34
17 17 19 17 17 17 17 18 18 20 23 22 23 23 20 19 25 27 28 30 31 31 31 31 31 32 36

GFSFLT2_sfc_dewp_003.txt.gz
Dewpoint
23 24 22 22 21 23 26 25 27 31 31 31 31 31 32 34 34 34 35 36 37 39 40 41 41 41 41
23 23 21 22 23 26 26 22 22 27 29 30 30 30 30 32 33 34 34 36 34 35 37 37 38 39 39
23 23 24 26 28 24 20 19 17 24 27 28 29 30 31 31 31 32 32 32 32 33 34 35 36 37 38
25 28 26 23 22 19 18 21 20 20 25 26 28 28 29 29 29 29 29 30 31 31 32 32 33 34 35
26 24 22 18 17 19 20 21 23 23 22 22 22 23 24 27 26 27 28 29 30 31 33 34 33 33 33
24 19 16 17 19 22 24 23 21 21 20 21 23 22 22 22 26 28 29 29 30 31 31 32 33 32 34
18 17 19 21 28 26 24 22 21 22 22 21 21 20 21 19 26 27 28 29 30 31 33 33 32 33 33
20 23 27 25 22 21 23 25 23 21 19 20 20 19 19 20 26 27 28 29 29 30 31 31 32 33 34
29 27 25 25 25 23 24 22 19 17 18 18 18 19 20 21 22 26 27 29 29 30 30 30 30 31 29
16 17 19 19 24 20 23 21 21 19 16 21 20 21 20 17 20 22 22 26 28 29 31 32 32 30 31
15 16 17 17 18 20 22 24 21 21 20 24 24 23 22 23 21 22 23 26 28 28 30 32 35 35 32
16 16 18 21 22 23 23 24 24 24 25 26 24 24 23 22 21 22 24 27 30 31 31 32 33 34 36
17 20 21 22 23 23 24 24 24 25 26 26 26 26 26 24 24 25 26 27 30 31 32 32 32 31 30
17 17 17 20 20 22 21 22 22 22 25 27 28 29 27 27 27 26 28 27 31 33 33 33 34 34 32
18 17 16 18 19 20 21 22 19 20 21 24 28 29 28 28 26 27 27 28 30 32 32 32 33 34 34
19 19 18 19 20 21 21 20 20 20 21 25 26 26 26 29 27 28 29 29 30 31 33 31 30 32 35
19 19 19 20 18 19 19 20 20 21 24 26 25 25 22 23 27 27 29 29 30 29 32 31 31 32 34

GFSFLT2_sfc_dewp_006.txt.gz
Dewpoint
18 19 20 21 20 23 25 24 25 29 29 29 30 31 32 33 33 34 34 35 36 37 38 39 40 41 42
21 21 20 22 24 24 21 18 18 22 27 29 30 30 31 31 32 33 34 35 35 36 37 37 37 38 39
21 23 25 26 25 22 18 17 15 24 27 28 29 30 31 31 31 31 31 32 32 33 34 35 35 36 37
25 30 27 24 22 18 17 20 20 19 24 26 28 28 29 29 30 30 29 30 31 32 32 32 33 34 35
29 26 23 19 16 18 20 22 23 23 23 22 21 22 24 27 27 27 28 29 30 31 33 33 33 34 34
26 20 15 16 18 22 25 24 22 21 20 21 23 22 23 23 26 28 28 29 30 30 31 33 34 33 33
18 15 17 20 28 29 25 23 22 22 23 22 21 21 22 20 27 28 29 30 31 31 32 32 33 33 33
19 22 26 27 23 22 23 25 24 21 21 21 20 20 21 22 27 28 29 30 31 32 33 33 33 32 33
27 29 26 25 24 23 25 24 21 18 19 19 19 20 21 22 22 24 26 29 30 33 34 34 34 34 32
18 18 19 19 24 21 25 24 23 21 18 22 21 20 20 19 20 23 25 28 29 31 34 36 36 33 34
16 16 17 18 19 22 24 26 24 23 21 24 25 24 24 24 22 23 25 27 28 29 32 34 34 36 33
16 16 20 23 25 26 26 26 26 26 27 27 25 25 24 23 22 24 26 29 31 32 34 34 36 35 35
17 21 23 24 26 26 27 27 26 27 27 27 27 27 26 24 24 26 27 28 32 32 34 34 33 34 33
18 18 19 23 23 24 24 24 23 24 27 28 29 29 27 27 26 25 28 29 31 32 33 33 34 35 34
19 18 17 20 21 23 23 24 22 21 23 26 29 30 30 29 27 28 28 29 30 32 32 32 33 34 34
21 21 21 21 22 23 23 23 22 21 22 25 27 27 27 29 29 29 28 28 30 31 33 31 31 34 34
22 22 23 23 21 22 22 23 22 23 24 27 27 27 25 22 26 29 29 29 30 30 31 32 31 33 34

GFSFLT2_sfc_dewp_012.txt.gz
Dewpoint
19 21 21 22 22 22 25 27 27 30 30 30 30 31 32 33 34 34 35 36 37 38 39 40 41 40 41
22 22 22 21 22 27 28 23 21 26 28 29 30 31 32 32 33 33 34 34 35 36 37 37 37 38 39
22 22 22 25 29 26 22 21 19 25 28 29 30 31 31 32 32 32 32 32 33 33 33 35 36 37 38
23 25 26 30 23 21 19 20 21 21 25 29 29 29 30 30 31 30 30 31 32 32 32 33 34 35 36
25 26 25 21 21 19 19 20 22 25 23 22 22 22 23 27 27 29 29 31 31 32 33 34 34 35 37
29 20 21 19 19 19 21 23 23 23 22 20 21 21 23 23 28 29 30 31 31 32 33 34 35 36 37
21 19 18 19 23 24 27 26 22 22 22 21 22 21 22 20 27 29 30 31 32 33 33 32 33 34 36
20 20 22 24 28 26 23 23 22 22 22 21 21 20 21 22 28 29 30 30 30 31 32 33 33 34 34
25 27 28 27 25 22 22 21 20 20 21 21 20 20 21 21 22 27 27 28 29 30 31 32 32 33 33
23 22 22 21 24 21 23 21 21 20 19 23 21 22 19 19 20 21 22 26 28 29 30 31 32 31 33
18 18 18 18 19 21 23 24 22 21 21 23 23 22 22 20 20 20 21 22 23 24 29 31 32 33 32
17 17 19 21 22 22 23 23 24 24 25 26 24 23 22 20 19 20 21 23 25 26 27 30 32 33 34
20 21 20 21 22 21 22 23 23 24 25 24 25 25 25 22 22 22 23 24 27 27 28 28 29 31 30
19 20 21 21 20 21 21 21 21 21 23 24 24 25 24 24 24 23 24 24 27 27 28 29 30 30 31
21 21 20 20 20 20 21 22 21 19 20 22 23 24 24 24 23 24 24 25 27 27 27 28 28 30 31
21 20 20 20 20 21 21 20 20 19 20 21 21 22 23 24 27 26 27 26 27 27 27 27 28 29 30
20 20 20 21 20 19 19 20 19 19 20 21 23 23 20 19 23 28 27 27 27 27 27 27 28 30 30

GFSFLT2_sfc_dewp_015.txt.gz
Dewpoint
20 22 22 22 22 22 24 27 28 30 30 31 31 31 32 33 33 34 35 36 37 39 39 40 40 40 41
22 23 22 22 22 24 26 26 23 26 28 30 31 31 32 33 33 33 33 34 36 36 36 36 37 39 40
23 23 23 25 26 28 24 22 21 25 27 29 31 32 32 32 32 32 32 33 33 33 33 34 36 37 38
23 24 25 26 27 22 21 20 20 19 24 28 30 30 30 30 31 30 30 31 32 33 33 34 35 36 37
23 25 25 20 21 20 19 20 21 23 24 24 22 22 23 27 27 29 30 31 32 32 33 35 35 36 38
25 23 21 20 19 19 21 22 22 24 21 22 22 21 22 23 28 29 30 31 32 32 32 33 34 35 36
24 22 20 20 22 23 27 26 23 23 22 21 22 21 22 21 28 29 30 31 32 31 32 33 33 34 34
23 22 22 24 27 24 22 22 22 21 21 21 21 20 21 21 27 29 30 30 30 30 31 32 32 32 33
26 27 28 27 25 22 21 20 19 18 19 19 20 20 20 21 21 27 27 28 28 29 30 31 31 32 31
23 22 21 21 24 21 21 20 20 19 18 22 21 21 19 19 20 21 21 26 28 29 29 30 30 28 29
17 17 18 19 20 21 22 22 21 20 20 22 23 22 22 20 20 20 21 21 22 23 27 29 30 31 30
17 18 20 21 21 22 23 22 23 22 22 23 22 22 21 19 18 19 20 22 24 25 26 28 31 32 32
18 19 20 21 22 22 22 22 22 23 24 23 23 23 23 21 20 20 22 22 25 25 26 28 27 28 28
19 19 20 20 20 21 21 21 20 20 22 23 23 23 22 23 23 22 22 22 24 25 27 28 29 29 29
19 19 18 19 19 20 20 20 20 19 19 21 23 23 23 23 21 21 21 23 24 26 27 27 27 28 28
19 19 19 18 19 20 21 20 19 19 19 20 21 21 21 23 26 23 24 25 26 26 27 27 26 28 28
18 17 18 18 20 18 19 19 18 19 19 21 23 23 20 18 22 28 28 27 27 27 27 27 27 28 29

GFSFLT2_sfc_dewp_021.txt.gz
Dewpoint
20 21 22 23 24 24 25 24 26 30 32 32 32 33 33 33 34 34 34 36 38 38 39 39 40 40 41
20 22 23 24 24 23 24 25 26 29 31 31 32 32 32 33 33 33 34 33 34 35 35 36 36 37 39
22 23 24 24 24 25 26 25 24 27 29 29 30 32 32 32 32 32 32 33 33 33 34 34 35 36 37
23 22 23 24 25 25 22 21 21 20 25 28 30 30 30 31 31 31 31 32 33 33 33 33 34 35 36
22 21 23 24 23 22 21 21 21 23 23 23 24 23 24 27 27 29 30 31 32 33 33 33 33 35 36
17 23 24 23 22 22 21 21 21 23 22 21 22 21 21 22 27 30 31 32 32 32 32 33 33 35 35
24 23 23 23 23 22 23 24 22 22 22 20 20 19 21 20 28 29 30 31 31 32 32 32 32 33 34
24 24 25 25 25 27 25 22 22 21 21 18 19 19 19 20 27 29 30 30 31 31 32 31 31 31 32
27 28 28 28 26 22 20 20 18 18 19 19 19 18 19 19 20 27 28 29 29 29 30 30 31 31 30
20 19 20 20 25 21 19 17 19 18 18 20 19 20 18 20 19 20 20 26 28 29 30 30 30 27 28
16 17 18 19 20 21 22 17 20 19 20 22 21 20 20 18 19 19 19 20 20 22 26 28 29 29 28
17 17 19 19 20 21 21 21 22 22 22 23 21 18 19 17 16 17 19 20 21 22 23 26 29 30 31
18 19 19 19 19 20 20 21 21 22 24 23 23 22 22 19 18 19 20 20 22 22 23 23 23 24 23
18 18 18 19 19 19 19 19 19 18 21 21 22 22 21 21 21 20 20 20 22 23 23 23 24 25 26
17 17 17 18 18 18 18 18 18 17 17 19 21 22 22 22 20 20 20 21 22 22 23 23 24 25 25
17 17 16 16 16 18 19 17 16 16 17 18 19 20 20 22 25 22 23 22 23 24 25 24 24 26 27
15 15 16 16 18 16 16 17 16 17 17 18 20 21 18 16 20 24 25 27 27 27 27 28 26 27 27

GFSFLT2_sfc_dewp_024.txt.gz
Dewpoint
19 20 20 22 23 24 25 24 25 31 31 32 33 34 34 34 34 34 35 36 38 38 39 39 40 40 40
19 21 22 23 24 24 24 24 25 29 32 32 32 32 33 33 33 33 34 35 35 35 36 36 36 37 37
20 23 23 24 23 24 25 25 25 27 29 30 30 31 32 33 33 33 33 33 34 34 34 35 35 36 37
22 22 23 24 24 24 23 22 22 22 25 28 30 30 31 32 32 32 31 32 33 34 34 34 34 34 35
22 21 21 24 24 23 22 22 22 23 23 23 24 24 24 28 28 29 30 32 33 34 34 33 34 35 36
17 22 23 24 23 22 22 21 21 23 22 22 23 21 21 22 27 29 31 32 32 33 33 33 33 34 35
25 23 23 23 23 21 23 24 23 23 22 20 21 19 20 20 27 29 30 31 32 32 33 33 32 32 33
25 25 25 25 25 26 26 24 22 21 22 18 19 18 20 20 27 28 30 31 31 31 32 32 31 32 33
27 28 28 28 25 22 20 19 18 17 19 19 18 18 19 19 20 27 28 28 29 30 30 31 31 31 30
20 19 20 19 24 21 18 15 18 18 18 19 18 19 18 19 19 21 20 25 27 29 29 30 30 27 28
16 17 17 18 19 20 21 16 19 19 19 22 17 20 20 19 19 19 19 19 20 21 26 27 28 29 27
16 17 18 19 19 20 21 21 21 21 21 22 20 18 18 17 16 17 19 20 21 22 23 26 28 30 30
17 18 18 18 19 19 19 20 20 21 23 22 22 21 21 18 18 18 19 20 22 22 23 23 23 24 23
17 17 18 16 18 19 18 18 18 18 20 20 20 20 19 19 20 19 20 20 21 22 23 23 24 24 24
16 16 16 17 17 17 17 17 16 17 17 19 20 21 21 20 19 19 19 20 21 22 23 23 24 25 25
15 15 15 15 15 17 19 18 16 16 17 18 19 19 19 21 24 21 22 22 24 25 26 25 24 26 26
13 12 14 14 16 16 16 16 17 17 17 18 18 20 18 15 19 24 24 26 26 25 26 26 26 26 27

GFSFLT2_sfc_dewp_027.txt.gz
Dewpoint
19 20 20 21 23 25 26 25 25 30 32 32 33 34 34 35 35 36 36 36 37 38 38 39 40 40 40
20 20 21 23 24 25 24 23 25 27 31 32 33 33 33 34 34 35 35 35 35 35 36 37 37 38 39
19 22 23 24 24 25 25 26 24 27 29 30 31 32 33 33 34 34 34 34 34 35 35 35 36 37 37
24 24 25 25 25 24 24 24 22 21 26 28 30 30 31 32 32 32 32 33 33 34 34 34 34 35 36
26 25 24 24 24 24 23 22 23 24 24 23 23 23 24 27 28 29 30 31 33 34 34 34 34 35 36
26 23 24 25 24 23 23 24 22 23 22 21 23 21 22 23 27 29 31 32 32 33 34 34 34 34 33
26 24 24 24 27 27 26 25 23 23 22 21 21 20 22 20 27 29 30 31 32 33 33 33 34 33 34
27 26 26 26 27 28 27 24 21 21 21 20 20 19 20 21 27 28 30 31 31 31 32 32 32 32 33
27 28 28 27 26 22 23 23 20 18 19 19 19 19 19 20 20 26 28 29 29 30 30 31 31 32 30
21 20 20 18 24 21 23 22 21 20 18 20 19 19 19 18 19 20 20 25 27 28 29 30 30 28 28
16 15 17 18 19 20 21 24 21 21 20 23 24 22 21 20 19 19 20 21 21 22 26 27 28 28 28
15 16 19 21 22 23 22 23 23 24 24 25 22 21 21 20 19 19 21 22 25 25 27 27 29 30 30
17 20 21 21 23 23 24 23 23 24 25 25 24 24 23 21 20 21 21 22 25 26 27 27 27 27 28
17 17 18 20 20 21 21 21 21 22 25 25 25 24 22 22 22 21 23 22 25 26 27 27 27 27 26
17 16 16 17 19 20 20 20 20 21 22 23 25 25 24 24 21 21 21 22 25 26 26 26 27 28 28
17 17 17 17 18 19 21 21 20 20 21 23 24 23 23 24 26 23 25 25 27 28 28 26 26 29 28
17 17 17 17 19 18 19 19 20 21 23 24 23 23 21 19 22 24 26 28 27 26 27 27 26 28 29